Retour au catalogue

STARLINK-2150

ActifCommunicationsVLEO
NORAD 47739·PAYLOAD·🇺🇸 United States

Lancé Mar 4, 2021 depuis Cape Canaveral Space Force Station

Loading…

Prochains Passages (prochaines 24 heures)

TLE

FraisSource: CelesTrak SupGP

Époque: Sep 15, 2026, 01:40 UTC

1 47739C 21017T   26258.06993056 -.00027687  00000+0 -89023-3 0  2586
2 47739  53.1583  57.8768 0001127  94.4120 256.3836 15.31720413    10

Suivez STARLINK-2150 en temps réel avec AllMySat

Download on the App Store